Home > Weather > Port-aux-Francais > Past weeks

Flag for French Southern Territories Past Weather in Port-aux-Francais, French Southern Territories — Yesterday and Last 2 Weeks

Now
47 °F

Cool.


Feels Like: 37 °F
Forecast: 34 / 40 °F
Wind: 33 mph from Northwest

Location: Port-Aux-Francais Iles Kerguelen

Current Time: Jul 24, 2016 at 6:03:02 PM

Latest Report: Jul 24, 2016 at 5:00 PM


Visibility: N/A

Pressure: 29.41 "Hg

Humidity: 93%

Dew Point: 45 °F

Location of Port-aux-FrancaisLocation

Past Weather in Port-aux-Francais — Graph

°F

Port-aux-Francais Temperature Yesterday

Maximum temperature yesterday: 41 °F (at 3:00 PM)
Minimum temperature yesterday: 34 °F (at 8:00 AM)
Average temperature yesterday: 37 °F

High & Low Weather Summary for the Past Weeks

 TemperatureHumidityPressure
High52 °F (Jul 24, 7:00 AM)97% (Jul 9, 10:00 PM)30.48 "Hg (Jul 9, 10:00 PM)
Low31 °F (Jul 14, 2:00 AM)48% (Jul 22, 1:00 AM)29.06 "Hg (Jul 10, 9:00 PM)
Average39 °F80%29.86 "Hg
* Reported Jul 9 4:00 PM — Jul 24 4:00 PM, Port-aux-Francais, Weather by CustomWeather, © 2016

Note: Actual official high and low records may vary slightly from our data, if they occured in-between our weather recording intervals... More about our weather records

Advertising

Port-aux-Francais Weather History for the Previous 24 Hours

Scroll right to see more
 ConditionsComfort  
Time TempWeatherWind HumidityBarometerVisibility
4:00 PM
Sun, Jul 24
48 °FCool.36 mph92%29.44 "HgN/A
3:00 PM47 °FCool.33 mph91%29.47 "HgN/A
2:00 PM48 °FCool.35 mph89%29.50 "HgN/A
1:00 PM49 °FCool.33 mph83%29.50 "HgN/A
12:00 PM49 °FCool.41 mph77%29.50 "HgN/A
11:00 AM49 °FCool.41 mph77%29.54 "HgN/A
10:00 AM49 °FCool.36 mph79%29.54 "HgN/A
9:00 AM49 °FCool.30 mph78%29.55 "HgN/A
8:00 AM50 °FCool.32 mph77%29.54 "HgN/A
7:00 AM52 °FCool.43 mph77%29.50 "HgN/A
6:00 AM49 °FCool.28 mph89%29.50 "HgN/A
5:00 AM47 °FCool.37 mph92%29.50 "HgN/A
4:00 AM46 °FCool.41 mph91%29.50 "HgN/A
3:00 AM47 °FCool.44 mph89%29.56 "HgN/A
2:00 AM46 °FCool.32 mph90%29.62 "HgN/A
1:00 AM38 °FChilly.14 mph96%29.73 "HgN/A
12:00 AM37 °FChilly.15 mph95%29.82 "HgN/A
11:00 PM
Sat, Jul 23
37 °FChilly.17 mph96%29.93 "HgN/A
10:00 PM37 °FChilly.13 mph92%30.02 "HgN/A
9:00 PM36 °FChilly.9 mph90%30.10 "HgN/A
8:00 PM36 °FChilly.10 mph91%30.13 "HgN/A
7:00 PM35 °FChilly.14 mph90%30.14 "HgN/A
6:00 PM35 °FChilly.7 mph82%30.19 "HgN/A
Weather by CustomWeather, © 2016

See weather overviewHow to use our weather pages